Weather History for Meacham, OR

Change the Weather History Date:

Tuesday, February 5, 2013

  Actual Average Record
Temperature  
Mean Temperature 37 °F -  
Max Temperature 46 °F 35 °F 54 °F (2007)
Min Temperature 28 °F 18 °F 0 °F (2014)
Degree Days  
Heating Degree Days 28    
Moisture  
Dew Point 29 °F    
Average Humidity 79    
Maximum Humidity 96    
Minimum Humidity 46    
Precipitation  
Precipitation 0.02 in - - ()
Sea Level Pressure  
Sea Level Pressure 29.93 in    
Wind  
Wind Speed 0 mph (North)    
Max Wind Speed 6 mph    
Max Gust Speed -    
Visibility 9 miles    
Events Rain , Snow    
Averages and records for this station are not official NWS values.
T = Trace of Precipitation, MM = Missing Value Source: NWS Daily Summary

Daily Weather History Graph

Daily Weather History Graph

Search for Another Location

Airport:

Trip Planner

Search our weather history database for the weather conditions in past years. The results will help you decide how hot, cold, wet, or windy it might be!

Date:

Astronomy

Feb. 05, 2013 Rise Set
Actual Time 7:09 AM PST 5:06 PM PST
Civil Twilight 6:38 AM PST 5:38 PM PST
Nautical Twilight 6:02 AM PST 6:13 PM PST
Astronomical Twilight 5:28 AM PST 6:47 PM PST
Moon 3:01 AM PST (2/5) 12:23 PM PST (2/5)
Length of Visible Light 10h 59m
Length of Day
9h 57m
Waning Crescent, 25% of the Moon is Illuminated
Feb 5
Waning Crescent
Feb 9
New
Feb 17
First Quarter
Feb 25
Full
Mar 4
Last Quarter

Hourly Weather History & Observations

Time (PST) Temp. Windchill Dew Point Humidity Pressure Visibility Wind Dir Wind Speed Gust Speed Precip Events Conditions
12:56 AM 35.1 °F - 27.0 °F 72% 29.95 in 10.0 mi Calm Calm - N/A   Clear
1:56 AM 35.1 °F - 27.0 °F 72% 29.94 in 10.0 mi Calm Calm - N/A   Mostly Cloudy
2:56 AM 36.0 °F - 27.0 °F 70% 29.93 in 10.0 mi Calm Calm - N/A   Mostly Cloudy
3:56 AM 35.1 °F - 28.0 °F 76% 29.93 in 10.0 mi Calm Calm - N/A   Overcast
4:56 AM 34.0 °F - 27.0 °F 75% 29.93 in 10.0 mi Calm Calm - N/A   Scattered Clouds
5:56 AM 34.0 °F - 26.1 °F 73% 29.93 in 10.0 mi Calm Calm - N/A   Clear
6:56 AM 30.9 °F - 26.1 °F 82% 29.93 in 10.0 mi Calm Calm - N/A   Partly Cloudy
7:56 AM 28.9 °F - 25.0 °F 85% 29.94 in 10.0 mi Calm Calm - N/A   Partly Cloudy
8:56 AM 32.0 °F - 27.0 °F 82% 29.93 in 6.0 mi Calm Calm - N/A   Haze
9:56 AM 42.1 °F - 27.0 °F 55% 29.90 in 10.0 mi Calm Calm - N/A   Clear
10:56 AM 46.0 °F - 26.1 °F 46% 29.89 in 10.0 mi Calm Calm - N/A   Scattered Clouds
11:56 AM 44.1 °F 40.8 °F 28.9 °F 55% 29.90 in 10.0 mi Variable 5.8 mph - N/A   Mostly Cloudy
12:56 PM 44.1 °F 41.5 °F 27.0 °F 51% 29.90 in 10.0 mi Variable 4.6 mph - N/A   Mostly Cloudy
1:56 PM 41.0 °F 39.0 °F 30.0 °F 65% 29.91 in 10.0 mi Variable 3.5 mph - N/A   Overcast
2:10 PM 39.2 °F 35.0 °F 30.2 °F 70% 29.87 in 10.0 mi Variable 5.8 mph - 0.00 in Rain Light Rain
2:56 PM 37.0 °F - 33.1 °F 86% 29.90 in 10.0 mi Calm Calm - 0.01 in   Overcast
3:56 PM 37.9 °F - 33.1 °F 83% 29.92 in 10.0 mi Calm Calm - N/A   Overcast
4:26 PM 37.4 °F - 33.8 °F 87% 29.88 in 10.0 mi Calm Calm - N/A   Overcast
4:56 PM 37.0 °F - 32.0 °F 82% 29.93 in 10.0 mi Calm Calm - N/A   Mostly Cloudy
5:13 PM 35.6 °F - 30.2 °F 81% 29.88 in 10.0 mi Calm Calm - N/A   Scattered Clouds
5:23 PM 35.6 °F - 30.2 °F 81% 29.89 in 10.0 mi Calm Calm - N/A   Mostly Cloudy
5:56 PM 34.0 °F - 30.9 °F 89% 29.95 in 10.0 mi Calm Calm - N/A   Mostly Cloudy
6:28 PM 32.0 °F - 30.2 °F 93% 29.89 in 10.0 mi Calm Calm - N/A   Partly Cloudy
6:56 PM 32.0 °F - 28.9 °F 88% 29.96 in 10.0 mi Calm Calm - N/A   Mostly Cloudy
7:56 PM 32.0 °F - 30.0 °F 92% 29.97 in 10.0 mi Calm Calm - N/A   Overcast
8:11 PM 32.0 °F - 30.2 °F 93% 29.91 in 10.0 mi Calm Calm - N/A   Overcast
8:27 PM 32.0 °F - 30.2 °F 93% 29.91 in 7.0 mi Calm Calm - 0.00 in Snow Light Snow
8:56 PM 30.0 °F - 28.0 °F 92% 29.99 in 10.0 mi Calm Calm - 0.00 in   Mostly Cloudy
9:56 PM 30.0 °F - 28.0 °F 92% 29.99 in 10.0 mi Calm Calm - N/A   Overcast
10:56 PM 30.0 °F - 28.9 °F 96% 29.99 in 10.0 mi Calm Calm - N/A   Overcast
11:15 PM 32.0 °F - 28.4 °F 87% 29.96 in 1.8 mi Calm Calm - 0.00 in Snow Light Snow
11:27 PM 33.8 °F - 30.2 °F 87% 29.96 in 4.0 mi Calm Calm - 0.01 in Snow Light Snow
11:56 PM 30.9 °F - 28.9 °F 92% 30.00 in 10.0 mi Calm Calm - 0.01 in   Overcast